This is the latest recevied weather packets stored in our database for station/object SQ9MHX-13. If no packets are shown the sender has not sent any weather packets the latest 10 day(s).
| Time | Temp. | Humidity | Pressure | Rain* | Wind** | Luminosity | Snow |
|---|---|---|---|---|---|---|---|
| 1777464454 | 11.11° C | 23% | 980.1 hPa | - | 0 m/s | - | - |
| 1777464156 | 11.11° C | 23% | 979.9 hPa | - | 0 m/s | - | - |
| 1777463857 | 12.22° C | 24% | 979 hPa | - | 0 m/s | - | - |
| 1777463559 | 10° C | 25% | 979.4 hPa | - | 0 m/s | - | - |
| 1777463260 | 10° C | 24% | 979.2 hPa | - | 0 m/s | - | - |
| 1777462962 | 12.22° C | 25% | 978.6 hPa | - | 0 m/s | - | - |
| 1777462365 | 12.22° C | 24% | 978.9 hPa | - | 0 m/s | - | - |
| 1777462066 | 11.11° C | 22% | 979.3 hPa | - | 0 m/s | - | - |
| 1777461768 | 10° C | 25% | 979.6 hPa | - | 0 m/s | - | - |
| 1777461480 | 11.11° C | 21% | 979.6 hPa | - | 0 m/s | - | - |
| 1777461171 | 11.11° C | 24% | 980.3 hPa | - | 0 m/s | - | - |
| 1777460879 | 10° C | 26% | 980.4 hPa | - | 0 m/s | - | - |
| 1777459977 | 10° C | 29% | 983.2 hPa | - | 0 m/s | - | - |
| 1777459678 | 7.78° C | 29% | 983.1 hPa | - | 0 m/s | - | - |
| 1777459380 | 8.89° C | 31% | 981 hPa | - | 0 m/s | - | - |
| 1777459085 | 10° C | 31% | 982.2 hPa | - | 0 m/s | - | - |
| 1777458489 | 10° C | 32% | 981.8 hPa | - | 0 m/s | - | - |
| 1777458186 | 7.78° C | 35% | 984 hPa | - | 0 m/s | - | - |
| 1777457888 | 8.89° C | 34% | 982.1 hPa | - | 0 m/s | - | - |
| 1777457590 | 8.89° C | 31% | 981.3 hPa | - | 0 m/s | - | - |
| 1777457291 | 7.78° C | 35% | 983.7 hPa | - | 0 m/s | - | - |
| 1777456993 | 7.78° C | 35% | 982.3 hPa | - | 0 m/s | - | - |
| 1777456694 | 8.89° C | 33% | 982 hPa | - | 0 m/s | - | - |
| 1777456396 | 8.89° C | 34% | 981.8 hPa | - | 0 m/s | - | - |
| 1777456097 | 8.89° C | 35% | 981.2 hPa | - | 0 m/s | - | - |
* Rain since midnight (hover to see other rain measurements)
** Current wind speed in m/s (hover to see current wind gust speed)